Location: Fort Worth, Tx
(32.7431°N, 97.3695°W)
Time: 10:00:05
(UTC-04:00)

Courier 1B - Pass Details

Date: 27 February 2024
Orbit: 962 x 1208 km, 28.3° (Epoch: 24 April)

Event Time Altitude Azimuth Distance (km) Brightness Sun altitude
Exits shadow 06:32:20 20° 224° (SW) 2,129 8.9 -19.2°
Maximum altitude 06:33:53 21° 205° (SSW) 2,059 8.9 -18.9°
Drops below altitude 10° 06:38:50 10° 158° (SSE) 2,821 10.2 -17.9°
Sets 06:42:17 0° 143° (SE) 3,818 11.1 -17.1°
